Starlink 30116

operational
NORAD ID: 57465 Int'l Des: 2023-107 Owner: SPXS Country: US Constellation: starlink
LEOCIRCULAR

About Starlink 30116

Description loading...

Live Position

Loading 3D Globe...

Upcoming Passes

Altitude History

Altitude vs Time

uPlot chart will show altitude changes over time

Two-Line Element Set

1 57465U 23107J 25259.12209524 .00002048 00000-0 16660-3 0 9994
2 57465 43.0019 207.5419 0001011 270.5399 89.5328 15.02538623118855
Epoch: Sep 16, 2025 • Age: 20 hours

Current Status

Altitude 568.6 km
Velocity 7.58 km/s
Sub-Earth Point -35.36°S, 166.33°E
Launch Date Jul 28, 2023
Age 2.1 years
Type internet

Technical Details

Classification Payload
Mass 730.00 kg
Dry Mass 700.00 kg
Total Mass 730.00 kg
Length 0.30 m
Diameter 4.10 m
Span 29.00 m
Shape Box + pan
Manufacturer SPXS
Bus Type Starlink V2M
Phase Status In Orbit
Owner/State SPXS/US

Large Constellations

Loading constellations...